Location: Berduj
(43.0019°N, 22.3781°E)
Time: 11:56:57
(UTC+00:00)

ASTEX 1 - Pass Details

Date: 19 October 2019
Orbit: 722 x 742 km, 92.7° (Epoch: 16 November)

Event Time Altitude Azimuth Distance (km) Brightness Sun altitude
Rises 16:18:51 0° 9° (N) 3,167 6.5 -7.4°
Reaches altitude 10° 16:21:11 10° 13° (NNE) 2,243 5.7 -7.9°
Maximum altitude 16:26:05 59° 93° (E) 851 3.5 -8.8°
Drops below altitude 10° 16:30:58 10° 173° (S) 2,239 5.9 -9.6°
Sets 16:33:18 0° 177° (S) 3,159 6.7 -10.1°
